Location: Poughquag
(41.6090°N, 73.6820°W)
Time: 12:17:39
(UTC-04:00)

Tiros 1 despin weight - Pass Details

Date: 07 June 2020
Orbit: 593 x 642 km, 48.2° (Epoch: 07 July)

Event Time Altitude Azimuth Distance (km) Brightness Sun altitude
Rises 07:53:54 0° 223° (SW) 2,932 ? 25.9°
Reaches altitude 10° 07:56:16 10° 218° (SW) 2,024 ? 26.3°
Maximum altitude 08:00:46 49° 144° (SE) 824 ? 27.1°
Drops below altitude 10° 08:05:15 10° 70° (ENE) 2,017 ? 28.0°
Sets 08:07:37 0° 65° (ENE) 2,920 ? 28.4°
